• In Belarus
  • List of Countries
  • For 7 days
  • Water Temperature
  • Satellite Maps
  • Weather Map
  • Weather Widgets
  • user-avatar
    Login

    Hourly Weather Laszkar Gah

    Today, 17 December, Sunday

    Time Temperature Precipitation Wind Pressure Humidity
    00:00 +10°C° 0 mm 3 mps 699 mmHg 23%
    01:00 +10°C° 0 mm 4 mps 699 mmHg 24%
    02:00 +10°C° 0 mm 3 mps 699 mmHg 24%
    03:00 +10°C° 0 mm 3 mps 699 mmHg 25%
    04:00 +9°C° 0 mm 3 mps 699 mmHg 25%
    05:00 +9°C° 0 mm 3 mps 699 mmHg 25%
    06:00 +9°C° 0 mm 3 mps 699 mmHg 25%
    07:00 +9°C° 0 mm 3 mps 699 mmHg 25%
    08:00 +11°C° 0 mm 4 mps 700 mmHg 22%
    09:00 +13°C° 0 mm 4 mps 700 mmHg 20%
    10:00 +15°C° 0 mm 4 mps 700 mmHg 17%
    11:00 +17°C° 0 mm 3 mps 700 mmHg 16%
    12:00 +18°C° 0 mm 3 mps 700 mmHg 15%
    13:00 +19°C° 0 mm 3 mps 700 mmHg 13%
    14:00 +19°C° 0 mm 2 mps 699 mmHg 14%
    15:00 +18°C° 0 mm 2 mps 699 mmHg 15%
    16:00 +18°C° 0 mm 2 mps 699 mmHg 15%
    17:00 +17°C° 0 mm 2 mps 699 mmHg 16%
    18:00 +16°C° 0 mm 2 mps 699 mmHg 17%
    19:00 +16°C° 0 mm 2 mps 699 mmHg 18%
    20:00 +15°C° 0 mm 2 mps 699 mmHg 19%
    21:00 +14°C° 0 mm 3 mps 699 mmHg 19%
    22:00 +13°C° 0 mm 3 mps 699 mmHg 20%
    23:00 +13°C° 0 mm 3 mps 699 mmHg 21%

    Tomorrow, 18 December, Monday

    Time Temperature Precipitation Wind Pressure Humidity
    00:00 +13°C° 0 mm 3 mps 699 mmHg 21%
    01:00 +13°C° 0 mm 3 mps 699 mmHg 22%
    02:00 +13°C° 0 mm 3 mps 699 mmHg 22%
    03:00 +12°C° 0 mm 3 mps 699 mmHg 23%
    04:00 +12°C° 0 mm 3 mps 699 mmHg 23%
    05:00 +12°C° 0 mm 3 mps 699 mmHg 23%
    06:00 +12°C° 0 mm 3 mps 699 mmHg 24%
    07:00 +12°C° 0 mm 3 mps 699 mmHg 24%
    08:00 +13°C° 0 mm 3 mps 700 mmHg 21%
    09:00 +15°C° 0 mm 4 mps 701 mmHg 19%
    10:00 +18°C° 0 mm 4 mps 701 mmHg 16%
    11:00 +19°C° 0 mm 3 mps 701 mmHg 15%
    12:00 +19°C° 0 mm 3 mps 700 mmHg 14%
    13:00 +20°C° 0 mm 3 mps 700 mmHg 13%
    14:00 +20°C° 0 mm 2 mps 699 mmHg 13%
    15:00 +20°C° 0 mm 2 mps 699 mmHg 14%
    16:00 +19°C° 0 mm 2 mps 699 mmHg 14%
    17:00 +18°C° 0 mm 2 mps 699 mmHg 15%
    18:00 +17°C° 0 mm 2 mps 699 mmHg 16%
    19:00 +16°C° 0 mm 2 mps 699 mmHg 17%
    20:00 +15°C° 0 mm 2 mps 699 mmHg 18%
    21:00 +15°C° 0 mm 2 mps 699 mmHg 19%
    22:00 +14°C° 0 mm 2 mps 699 mmHg 21%
    23:00 +14°C° 0 mm 2 mps 699 mmHg 22%

    Day after tomorrow, 19 December, Tuesday

    Time Temperature Precipitation Wind Pressure Humidity
    00:00 +14°C° 0 mm 2 mps 699 mmHg 23%
    01:00 +13°C° 0 mm 2 mps 699 mmHg 24%
    02:00 +13°C° 0 mm 2 mps 699 mmHg 24%
    03:00 +13°C° 0 mm 2 mps 699 mmHg 24%
    04:00 +13°C° 0 mm 2 mps 699 mmHg 24%
    05:00 +12°C° 0 mm 3 mps 699 mmHg 24%
    06:00 +12°C° 0 mm 3 mps 699 mmHg 23%
    07:00 +12°C° 0 mm 3 mps 700 mmHg 23%
    08:00 +14°C° 0 mm 3 mps 700 mmHg 21%
    09:00 +17°C° 0 mm 4 mps 701 mmHg 19%
    10:00 +18°C° 0 mm 4 mps 701 mmHg 16%
    11:00 +19°C° 0 mm 3 mps 701 mmHg 15%
    12:00 +20°C° 0 mm 3 mps 700 mmHg 14%
    13:00 +20°C° 0 mm 3 mps 700 mmHg 13%
    14:00 +20°C° 0 mm 2 mps 700 mmHg 14%
    15:00 +20°C° 0 mm 2 mps 699 mmHg 14%
    16:00 +20°C° 0 mm 1 mps 699 mmHg 14%
    17:00 +19°C° 0 mm 1 mps 699 mmHg 16%
    18:00 +16°C° 0 mm 1 mps 699 mmHg 18%
    19:00 +15°C° 0 mm 1 mps 699 mmHg 19%
    20:00 +14°C° 0 mm 1 mps 699 mmHg 20%
    21:00 +14°C° 0 mm 2 mps 700 mmHg 21%
    22:00 +14°C° 0 mm 2 mps 700 mmHg 22%
    23:00 +13°C° 0 mm 2 mps 699 mmHg 23%

    20 December, Wednesday

    Time Temperature Precipitation Wind Pressure Humidity
    00:00 +13°C° 0 mm 2 mps 699 mmHg 24%
    01:00 +12°C° 0 mm 2 mps 699 mmHg 26%
    02:00 +12°C° 0 mm 2 mps 699 mmHg 27%
    03:00 +12°C° 0 mm 2 mps 699 mmHg 28%
    04:00 +10°C° 0 mm 2 mps 699 mmHg 29%
    05:00 +10°C° 0 mm 2 mps 699 mmHg 29%
    06:00 +10°C° 0 mm 2 mps 700 mmHg 30%
    07:00 +10°C° 0 mm 2 mps 700 mmHg 30%
    08:00 +13°C° 0 mm 2 mps 701 mmHg 26%
    09:00 +15°C° 0 mm 2 mps 702 mmHg 22%
    10:00 +17°C° 0 mm 2 mps 703 mmHg 18%
    11:00 +18°C° 0 mm 2 mps 702 mmHg 17%
    12:00 +20°C° 0 mm 1 mps 702 mmHg 16%
    13:00 +21°C° 0 mm 1 mps 701 mmHg 15%
    14:00 +20°C° 0 mm 1 mps 701 mmHg 15%
    15:00 +20°C° 0 mm 1 mps 701 mmHg 16%
    16:00 +20°C° 0 mm 1 mps 701 mmHg 17%
    17:00 +18°C° 0 mm 1 mps 701 mmHg 19%
    18:00 +16°C° 0 mm 2 mps 701 mmHg 21%
    19:00 +15°C° 0 mm 2 mps 701 mmHg 23%
    20:00 +14°C° 0 mm 2 mps 701 mmHg 24%
    21:00 +14°C° 0 mm 2 mps 702 mmHg 25%
    22:00 +13°C° 0 mm 2 mps 702 mmHg 26%
    23:00 +13°C° 0 mm 2 mps 701 mmHg 27%

    21 December, Thursday

    Time Temperature Precipitation Wind Pressure Humidity
    00:00 +12°C° 0 mm 2 mps 701 mmHg 28%
    01:00 +12°C° 0 mm 2 mps 701 mmHg 29%
    02:00 +11°C° 0 mm 1 mps 701 mmHg 30%
    03:00 +11°C° 0 mm 1 mps 701 mmHg 32%
    04:00 +10°C° 0 mm 1 mps 700 mmHg 33%
    05:00 +10°C° 0 mm 1 mps 701 mmHg 34%
    06:00 +10°C° 0 mm 1 mps 701 mmHg 35%
    07:00 +9°C° 0 mm 1 mps 701 mmHg 36%
    08:00 +12°C° 0 mm 1 mps 702 mmHg 31%
    09:00 +14°C° 0 mm 1 mps 703 mmHg 27%
    10:00 +18°C° 0 mm 1 mps 703 mmHg 22%
    11:00 +18°C° 0 mm 1 mps 703 mmHg 21%
    12:00 +19°C° 0 mm 1 mps 702 mmHg 20%
    13:00 +20°C° 0 mm 1 mps 702 mmHg 19%
    14:00 +20°C° 0 mm 1 mps 701 mmHg 20%
    15:00 +20°C° 0 mm 1 mps 701 mmHg 20%
    16:00 +19°C° 0 mm 1 mps 700 mmHg 20%
    17:00 +18°C° 0 mm 1 mps 700 mmHg 23%
    18:00 +16°C° 0 mm 1 mps 700 mmHg 25%
    19:00 +14°C° 0 mm 1 mps 700 mmHg 27%
    20:00 +14°C° 0 mm 1 mps 700 mmHg 28%
    21:00 +13°C° 0 mm 1 mps 700 mmHg 29%
    22:00 +13°C° 0 mm 1 mps 700 mmHg 30%
    23:00 +12°C° 0 mm 1 mps 700 mmHg 31%

    22 December, Friday

    Time Temperature Precipitation Wind Pressure Humidity
    00:00 +12°C° 0 mm 1 mps 699 mmHg 32%
    01:00 +11°C° 0 mm 1 mps 699 mmHg 34%
    02:00 +10°C° 0 mm 1 mps 699 mmHg 35%
    03:00 +9°C° 0 mm 0 mps 699 mmHg 36%
    04:00 +9°C° 0 mm 0 mps 698 mmHg 37%
    05:00 +8°C° 0 mm 0 mps 699 mmHg 38%
    06:00 +8°C° 0 mm 0 mps 699 mmHg 38%
    07:00 +8°C° 0 mm 0 mps 699 mmHg 39%
    08:00 +10°C° 0 mm 0 mps 700 mmHg 34%
    09:00 +13°C° 0 mm 0 mps 700 mmHg 28%
    10:00 +15°C° 0 mm 0 mps 701 mmHg 23%
    11:00 +16°C° 0 mm 0 mps 700 mmHg 22%
    12:00 +17°C° 0 mm 0 mps 700 mmHg 20%
    13:00 +18°C° 0 mm 0 mps 699 mmHg 19%
    14:00 +18°C° 0 mm 0 mps 699 mmHg 19%
    15:00 +17°C° 0 mm 0 mps 698 mmHg 20%
    16:00 +17°C° 0 mm 0 mps 698 mmHg 20%
    17:00 +16°C° 0 mm 0 mps 698 mmHg 22%
    18:00 +14°C° 0 mm 0 mps 698 mmHg 25%
    19:00 +13°C° 0 mm 0 mps 698 mmHg 27%
    20:00 +13°C° 0 mm 1 mps 697 mmHg 28%
    21:00 +13°C° 0 mm 1 mps 697 mmHg 28%
    22:00 +13°C° 0 mm 1 mps 697 mmHg 29%
    23:00 +12°C° 0 mm 1 mps 697 mmHg 29%
    Show more